Вернуться в каталог

DELTA 1 DEB

YO

АктивенLEO
NORAD 312·DEBRIS·🇺🇸 United States

Запущен Jun 19, 1962 с Cape Canaveral Space Force Station

Loading…

Ближайшие Пролёты (ближайшие 24 часа)

TLE

СвежийSource: Space-Track

Эпоха: Sep 5, 2026, 13:36 UTC

1 00312U 62025C   26248.56736013  .00000743  00000-0  14564-3 0  9991
2 00312  58.2443  89.9722 0194674  54.6797 307.2264 14.62020368370679

Отслеживайте DELTA 1 DEB в реальном времени с AllMySat

Download on the App Store